Madison, SD

9:56 AM CDT on June 25, 2017 (GMT -0500)
Madison Municipal

Weather History for KMDS - January, 2014

Change the Weather History Date:

Friday, January 3, 2014

  Actual Average Record
Temperature  
Mean Temperature 16 °F -  
Max Temperature 33 °F 23 °F 39 °F (2012)
Min Temperature 0 °F 2 °F -4 °F (2017)
Degree Days  
Heating Degree Days 48    
Moisture  
Dew Point 17 °F    
Average Humidity 100    
Maximum Humidity 100    
Minimum Humidity 92    
Precipitation  
Precipitation 0.00 in - - ()
Sea Level Pressure  
Sea Level Pressure 29.63 in    
Wind  
Wind Speed 21 mph (SSW)    
Max Wind Speed 29 mph    
Max Gust Speed 37 mph    
Visibility 7 miles    
Events Rain , Snow    
Averages and records for this station are not official NWS values.
T = Trace of Precipitation, MM = Missing Value Source: NWS Daily Summary

Daily Weather History Graph

Daily Weather History Graph

Search for Another Location

Airport or City:

Trip Planner

Search our weather history database for the weather conditions in past years. The results will help you decide how hot, cold, wet, or windy it might be!

Date:

Astronomy

Jan. 03, 2014 Rise Set
Actual Time 8:03 AM CST 5:02 PM CST
Civil Twilight 7:30 AM CST 5:35 PM CST
Nautical Twilight 6:54 AM CST 6:12 PM CST
Astronomical Twilight 6:19 AM CST 6:47 PM CST
Moon 9:23 AM CST (1/3) 8:20 PM CST (1/3)
Length of Visible Light 10h 05m
Length of Day
8h 59m
Waxing Crescent, 8% of the Moon is Illuminated
Jan 3
Waxing Crescent
Jan 7
First Quarter
Jan 15
Full
Jan 23
Last Quarter
Jan 30
New

Hourly Weather History & Observations

Time (CST) Temp. Windchill Dew Point Humidity Pressure Visibility Wind Dir Wind Speed Gust Speed Precip Events Conditions
12:10 AM -0.4 °F -23.8 °F -0.4 °F 100% 30.13 in 10.0 mi South 23.0 mph 28.8 mph N/A   Overcast
12:30 AM -0.4 °F -22.3 °F -0.4 °F 100% 30.12 in 10.0 mi South 19.6 mph 25.3 mph N/A   Overcast
12:50 AM -0.4 °F -22.3 °F -0.4 °F 100% 30.10 in 10.0 mi South 19.6 mph 24.2 mph N/A   Overcast
1:10 AM -0.4 °F -22.3 °F -0.4 °F 100% 30.08 in 10.0 mi South 19.6 mph - N/A   Overcast
1:30 AM -0.4 °F -21.2 °F -0.4 °F 100% 30.07 in 10.0 mi South 17.3 mph - N/A   Overcast
1:50 AM 1.4 °F -19.4 °F 1.4 °F 100% 30.06 in 10.0 mi South 18.4 mph - N/A   Overcast
2:10 AM 1.4 °F -19.9 °F 1.4 °F 100% 30.03 in 10.0 mi South 19.6 mph 23.0 mph N/A   Overcast
2:30 AM 3.2 °F -17.6 °F 1.4 °F 92% 30.01 in 10.0 mi South 19.6 mph 27.6 mph N/A   Overcast
2:50 AM 3.2 °F -18.1 °F 3.2 °F 100% 30.00 in 5.0 mi South 20.7 mph 27.6 mph N/A   Overcast
3:10 AM 5.0 °F -14.7 °F 5.0 °F 100% 30.00 in 5.0 mi South 18.4 mph 24.2 mph N/A   Overcast
3:30 AM 5.0 °F -16.2 °F 5.0 °F 100% 29.97 in 3.0 mi South 21.9 mph - N/A   Overcast
3:50 AM 5.0 °F -16.2 °F 5.0 °F 100% 29.95 in 3.0 mi South 21.9 mph 32.2 mph N/A   Overcast
4:10 AM 6.8 °F -14.7 °F 6.8 °F 100% 29.92 in 3.0 mi South 24.2 mph 29.9 mph N/A   Overcast
4:30 AM 6.8 °F -14.3 °F 6.8 °F 100% 29.90 in 3.0 mi South 23.0 mph - N/A   Overcast
4:50 AM 6.8 °F -13.8 °F 6.8 °F 100% 29.89 in 3.0 mi South 21.9 mph 31.1 mph N/A   Overcast
5:10 AM 6.8 °F -13.4 °F 6.8 °F 100% 29.88 in 3.0 mi South 20.7 mph 29.9 mph N/A   Overcast
5:30 AM 6.8 °F -14.7 °F 6.8 °F 100% 29.86 in 2.5 mi South 24.2 mph 31.1 mph N/A   Overcast
5:50 AM 6.8 °F -14.7 °F 6.8 °F 100% 29.84 in 2.5 mi South 24.2 mph 29.9 mph N/A   Overcast
6:10 AM 6.8 °F -14.7 °F 6.8 °F 100% 29.83 in 2.5 mi South 24.2 mph 29.9 mph N/A   Overcast
6:30 AM 8.6 °F -11.9 °F 8.6 °F 100% 29.81 in 3.0 mi South 23.0 mph 31.1 mph N/A   Overcast
6:50 AM 8.6 °F -12.3 °F 8.6 °F 100% 29.79 in 2.0 mi South 24.2 mph - N/A   Overcast
7:10 AM 8.6 °F -13.8 °F 8.6 °F 100% 29.76 in 1.5 mi South 28.8 mph 36.8 mph N/A Snow Light Snow
7:30 AM 8.6 °F -12.7 °F 8.6 °F 100% 29.75 in 2.0 mi South 25.3 mph 35.7 mph N/A   Overcast
7:50 AM 8.6 °F -12.3 °F 8.6 °F 100% 29.74 in 3.0 mi South 24.2 mph - N/A   Overcast
8:10 AM 8.6 °F -12.7 °F 8.6 °F 100% 29.72 in 1.8 mi South 25.3 mph 33.4 mph N/A   Overcast
8:30 AM 8.6 °F -12.3 °F 8.6 °F 100% 29.70 in 1.8 mi South 24.2 mph 34.5 mph N/A   Overcast
8:50 AM 10.4 °F -10.3 °F 10.4 °F 100% 29.70 in 2.0 mi South 25.3 mph 29.9 mph N/A   Overcast
9:10 AM 10.4 °F -10.3 °F 10.4 °F 100% 29.69 in 1.8 mi South 25.3 mph 31.1 mph N/A   Overcast
9:30 AM 10.4 °F -10.3 °F 10.4 °F 100% 29.67 in 1.5 mi South 25.3 mph 31.1 mph N/A   Overcast
9:50 AM 12.2 °F -8.2 °F 12.2 °F 100% 29.65 in 1.8 mi South 26.5 mph 31.1 mph N/A   Overcast
10:10 AM 12.2 °F -7.9 °F 12.2 °F 100% 29.63 in 2.5 mi SSW 25.3 mph 31.1 mph N/A   Overcast
10:30 AM 12.2 °F -8.2 °F 12.2 °F 100% 29.62 in 2.0 mi SSW 26.5 mph 34.5 mph N/A   Overcast
10:50 AM 14.0 °F -5.5 °F 14.0 °F 100% 29.61 in 3.0 mi South 25.3 mph 33.4 mph N/A   Overcast
11:10 AM 14.0 °F -5.8 °F 14.0 °F 100% 29.59 in 3.0 mi South 26.5 mph 33.4 mph N/A   Mostly Cloudy
11:30 AM 15.8 °F -2.3 °F 15.8 °F 100% 29.57 in 6.0 mi SSW 23.0 mph 29.9 mph N/A   Mostly Cloudy
11:50 AM 15.8 °F -3.1 °F 15.8 °F 100% 29.55 in 10.0 mi South 25.3 mph 29.9 mph N/A   Scattered Clouds
12:10 PM 15.8 °F -2.7 °F 15.8 °F 100% 29.53 in 7.0 mi South 24.2 mph 31.1 mph N/A   Partly Cloudy
12:25 PM 17.6 °F 0.1 °F 17.6 °F 100% 29.52 in 9.0 mi South 23.0 mph 29.9 mph N/A   Scattered Clouds
12:50 PM 17.6 °F 0.5 °F 17.6 °F 100% 29.49 in 10.0 mi South 21.9 mph - N/A   Partly Cloudy
1:10 PM 19.4 °F 2.1 °F 19.4 °F 100% 29.47 in 10.0 mi South 24.2 mph 28.8 mph N/A   Clear
1:30 PM 21.2 °F 4.2 °F 21.2 °F 100% 29.45 in 10.0 mi South 25.3 mph 28.8 mph N/A   Clear
1:50 PM 21.2 °F 4.9 °F 21.2 °F 100% 29.44 in 10.0 mi South 23.0 mph 28.8 mph N/A   Clear
2:10 PM 23.0 °F 7.2 °F 23.0 °F 100% 29.44 in 10.0 mi South 23.0 mph - N/A   Clear
2:25 PM 23.0 °F 7.6 °F 23.0 °F 100% 29.42 in 10.0 mi South 21.9 mph - N/A   Clear
2:50 PM 23.0 °F 7.6 °F 23.0 °F 100% 29.41 in 10.0 mi South 21.9 mph - N/A   Clear
3:10 PM 23.0 °F 8.0 °F 23.0 °F 100% 29.41 in 10.0 mi South 20.7 mph - N/A   Clear
3:30 PM 24.8 °F 11.1 °F 24.8 °F 100% 29.42 in 10.0 mi South 18.4 mph 25.3 mph N/A   Clear
3:50 PM 24.8 °F 11.5 °F 24.8 °F 100% 29.41 in 10.0 mi South 17.3 mph - N/A   Clear
4:10 PM 24.8 °F 12.9 °F 24.8 °F 100% 29.42 in 10.0 mi South 13.8 mph - N/A   Clear
4:30 PM 26.6 °F 14.3 °F 26.6 °F 100% 29.42 in 10.0 mi South 16.1 mph - N/A   Clear
4:50 PM 26.6 °F 14.3 °F 26.6 °F 100% 29.40 in 10.0 mi South 16.1 mph - N/A   Clear
5:10 PM 26.6 °F 14.3 °F 26.6 °F 100% 29.39 in 10.0 mi South 16.1 mph - N/A   Clear
5:30 PM 26.6 °F 14.7 °F 26.6 °F 100% 29.40 in 10.0 mi South 15.0 mph - N/A   Clear
5:50 PM 26.6 °F 15.7 °F 26.6 °F 100% 29.41 in 10.0 mi SSW 12.7 mph - N/A   Clear
6:10 PM 26.6 °F 14.3 °F 26.6 °F 100% 29.40 in 10.0 mi South 16.1 mph - N/A   Clear
6:25 PM 26.6 °F 15.2 °F 26.6 °F 100% 29.40 in 10.0 mi South 13.8 mph - N/A   Clear
6:50 PM 28.4 °F 16.6 °F 28.4 °F 100% 29.39 in 10.0 mi South 16.1 mph - N/A   Partly Cloudy
7:10 PM 28.4 °F 17.5 °F 28.4 °F 100% 29.40 in 10.0 mi SSW 13.8 mph - N/A   Clear
7:30 PM 28.4 °F 17.5 °F 28.4 °F 100% 29.41 in 10.0 mi SSW 13.8 mph - N/A   Partly Cloudy
7:50 PM 28.4 °F 18.5 °F 28.4 °F 100% 29.41 in 10.0 mi SSW 11.5 mph - N/A   Mostly Cloudy
8:10 PM 30.2 °F 20.2 °F 30.2 °F 100% 29.42 in 10.0 mi SSW 12.7 mph - N/A   Overcast
8:30 PM 32.0 °F 22.5 °F 32.0 °F 100% 29.40 in 10.0 mi SSW 12.7 mph - N/A Rain Light Rain
8:50 PM 32.0 °F 23.0 °F 32.0 °F 100% 29.42 in 10.0 mi SW 11.5 mph - N/A   Overcast
9:10 PM 32.0 °F 21.6 °F 32.0 °F 100% 29.44 in 10.0 mi WSW 15.0 mph - N/A   Overcast
9:30 PM 32.0 °F 22.5 °F 32.0 °F 100% 29.44 in 10.0 mi WSW 12.7 mph 18.4 mph N/A Rain Light Rain
9:50 PM 32.0 °F 23.0 °F 32.0 °F 100% 29.43 in 10.0 mi SW 11.5 mph - N/A Rain Light Rain
10:10 PM 32.0 °F 24.2 °F 32.0 °F 100% 29.41 in 10.0 mi SW 9.2 mph - N/A   Mostly Cloudy
10:30 PM 32.0 °F 23.6 °F 32.0 °F 100% 29.44 in 10.0 mi WSW 10.4 mph - N/A   Overcast
10:45 PM 32.0 °F 22.1 °F 32.0 °F 100% 29.46 in 10.0 mi WSW 13.8 mph - N/A   Overcast
11:10 PM 33.8 °F 25.3 °F 33.8 °F 100% 29.46 in 10.0 mi WSW 11.5 mph - N/A   Overcast
11:30 PM 32.0 °F 22.5 °F 32.0 °F 100% 29.45 in 10.0 mi WSW 12.7 mph - N/A   Mostly Cloudy
11:50 PM 32.0 °F 23.0 °F 32.0 °F 100% 29.46 in 10.0 mi SW 11.5 mph - N/A   Mostly Cloudy